Location: Chagrin Falls Park
(41.4139°N, 81.3865°W)
Time: 22:51:28
(UTC+00:00)

STARLINK-2756 - Pass Details

Date: 31 July 2021
Orbit: 347 x 352 km, 53.0° (Epoch: 20 September)

Event Time Altitude Azimuth Distance (km) Brightness Sun altitude
Rises 01:19:07 0° 300° (WNW) 2,195 9.5 -6.5°
Reaches altitude 10° 01:21:17 10° 289° (WNW) 1,339 7.2 -6.9°
Maximum altitude 01:23:57 30° 226° (SW) 677 4.3 -7.3°
Drops below altitude 10° 01:26:34 10° 162° (SSE) 1,317 5.1 -7.7°
Enters shadow 01:27:10 - 158° (SSE) 1,542 5.4 -7.8°
